[[{"header":{"parameterUnit":"m.s-1","parameterCategory":1,"la1":30.2991,"la2":30.254,"lo1":-89.0895,"lo2":-89.0444,"dy":0.0017,"dx":0.0017,"nx":28,"ny":28,"refTime":"2026-03-03T09:00:00:Z","depth":0,"parameterNumber":2,"parameterNumberName":"U-component_of_WINDS"},"data":[0,0,0,0,0,0,0,0,0,0,0,0,0,0,0,0,0,0,0,0,0,0,0,0,0,0,0,0,0,0,0,0,0,0,0,0,0,0,0,0,0,0,0,0,0,0,0,0,0,0,0,0,0,0,0,0,0,0,-5.7471,-5.7472,0,-5.7596,-5.7598,-5.7599,-5.7582,-5.758,-5.7578,-5.7576,-5.7702,-5.7707,-5.7712,0,0,0,0,0,0,0,0,0,0,0,0,0,-5.7217,-5.7221,-5.7471,-5.7472,-5.7474,-5.7596,-5.7598,-5.7599,-5.7582,-5.758,-5.7577,-5.7575,-5.77,-5.7706,-5.7712,0,0,0,0,0,0,0,0,0,0,0,0,0,-5.7333,-5.7223,-5.7471,-5.748,-5.7482,-5.7596,-5.7598,-5.76,-5.7583,-5.758,-5.7576,-5.7574,-5.7698,-5.7705,-5.7713,-5.7824,0,0,-5.7738,-5.7741,0,0,0,0,0,0,0,0,-5.7326,-5.7342,-5.7477,-5.748,-5.7482,-5.757,-5.7554,-5.7675,-5.7583,-5.7544,-5.7576,-5.7572,-5.766,-5.7671,-5.7701,-5.783,-5.7836,-5.7738,-5.7743,-5.7746,-5.7749,0,0,0,0,0,0,0,-5.7318,-5.7337,-5.752,-5.7479,-5.7482,-5.7478,-5.7491,-5.7577,-5.7618,-5.7548,-5.7547,-5.7562,-5.7661,-5.7694,-5.7704,-5.7838,-5.7738,-5.7745,-5.775,-5.7753,-5.8066,-5.8069,0,0,0,0,0,0,-5.7308,-5.733,-5.7516,-5.7524,-5.7395,-5.7485,-5.75,-5.7545,-5.7617,-5.7625,-5.7564,-5.7561,-5.7682,-5.7695,-5.7708,-5.7843,-5.7746,-5.7754,-5.7758,-5.8062,-5.8067,-5.8071,0,0,0,0,0,0,-5.7302,-5.7325,-5.7511,-5.7427,-5.7451,-5.7493,-5.7544,-5.7549,-5.7582,-5.763,-5.7637,-5.759,-5.768,-5.7697,-5.7796,-5.7848,-5.7757,-5.7765,-5.8058,-5.8064,-5.8069,-5.8114,0,0,0,0,0,0,-5.7295,-5.7323,-5.7365,-5.7428,-5.7455,-5.7597,-5.7547,-5.7554,-5.7596,-5.7592,-5.7656,-5.7664,-5.7679,-5.7785,-5.7804,-5.7857,-5.7771,-5.8054,-5.8061,-5.8067,-5.8108,-5.812,-5.8131,0,0,0,0,0,-5.7286,-5.7372,-5.7367,-5.739,-5.7509,-5.76,-5.7615,-5.7631,-5.76,-5.7643,-5.7675,-5.7662,-5.784,-5.7795,-5.7817,-5.7872,-5.805,-5.8059,-5.8066,-5.8103,-5.8118,-5.813,0,0,0,0,0,0,-5.7312,-5.738,-5.7376,-5.7484,-5.7537,-5.7597,-5.7651,-5.7647,-5.7708,-5.7702,-5.7719,-5.7734,-5.7834,-5.7864,-5.7812,-5.7985,-5.7941,-5.7954,-5.7961,-5.7976,-5.7987,-5.7976,-5.7777,0,0,0,0,0,-5.7331,-5.7399,-5.7455,-5.7546,-5.7573,-5.7608,-5.7648,-5.7657,-5.7711,-5.7732,-5.7771,-5.7824,-5.7892,-5.7936,-5.8001,-5.8114,-5.8127,-5.8163,-5.8175,-5.8184,-5.8194,-5.8256,-5.8273,-5.8097,-5.8097,-5.8097,0,0,-5.7369,-5.7415,-5.7456,-5.7552,-5.7593,-5.7664,-5.7626,-5.7702,-5.7754,-5.7744,-5.7839,-5.787,-5.793,-5.8037,-5.8086,-5.8065,-5.8246,-5.8194,-5.8201,-5.8206,-5.8266,-5.8283,-5.8297,-5.8102,-5.8101,-5.81,0,0,-5.7474,-5.7516,-5.7597,-5.764,-5.7704,-5.7728,-5.7747,-5.781,-5.783,-5.7927,-5.7921,-5.7984,-5.8101,-5.8144,-5.8181,-5.8309,-5.8299,-5.833,-5.8387,-5.8448,-5.8462,-5.8474,-5.8519,-5.8534,-5.834,-5.834,-5.834,0,-5.7513,-5.7619,-5.7638,-5.7716,-5.7758,-5.7755,-5.7836,-5.7877,-5.7959,-5.7988,-5.7965,-5.8113,-5.8153,-5.827,-5.8301,-5.8332,-5.8355,-5.832,-5.8459,-5.8471,-5.8483,-5.8525,-5.8542,-5.8343,-5.8343,-5.8343,-5.8342,0,-5.7664,-5.7738,-5.7795,-5.7876,-5.7926,-5.8005,-5.8036,-5.8084,-5.809,-5.8116,-5.8216,-5.8265,-5.8341,-5.837,-5.8376,-5.8489,-5.8474,-5.8455,-5.841,-5.8503,-5.8543,-5.8559,-5.8348,-5.8347,-5.8346,-5.8345,0,0,-5.7783,-5.7877,-5.7898,-5.7935,-5.8008,-5.8065,-5.8146,-5.8221,-5.8262,-5.832,-5.8387,-5.8488,-5.8472,-5.8514,-5.8526,-5.858,-5.8677,-5.8554,-5.8555,-5.8573,-5.8804,-5.8816,-5.8835,-5.8673,-5.8676,-5.8678,-5.8799,0,-5.7894,-5.8036,-5.8058,-5.8182,-5.8251,-5.8252,-5.8322,-5.8374,-5.8402,-5.8465,-5.8496,-5.8567,-5.854,-5.8566,-5.862,-5.8653,-5.8723,-5.8645,-5.8734,-5.8737,-5.8716,-5.8856,-5.8868,-5.8979,-5.8815,-5.8817,-5.8819,0,-5.8041,-5.8105,-5.8237,-5.8303,-5.8332,-5.8395,-5.8467,-5.8527,-5.8588,-5.8605,-5.8655,-5.866,-5.8744,-5.8699,-5.8814,-5.8761,-5.88,-5.8823,-5.8827,-5.8833,-5.8781,-5.8864,-5.9015,-5.9031,-5.8844,-5.8842,-5.8841,0,-5.8113,-5.8233,-5.8327,-5.836,-5.8439,-5.8483,-5.8518,-5.8576,-5.8621,-5.8684,-5.8714,-5.8786,-5.8825,-5.8881,-5.8907,-5.8872,-5.9021,-5.8977,-5.9036,-5.9035,-5.9064,-5.9061,-5.9221,-5.9093,-5.9093,-5.9093,-5.9092,0,-5.8233,-5.8313,-5.8361,-5.8419,-5.851,-5.8535,-5.8624,-5.8658,-5.871,-5.8775,-5.878,-5.8841,-5.8872,-5.8938,-5.8959,-5.9051,-5.9069,-5.9084,-5.9088,-5.9082,-5.908,-5.9105,-5.9097,-5.9097,-5.9096,-5.9095,-5.9095,0,-5.8327,-5.8362,-5.8465,-5.8534,-5.8553,-5.8617,-5.8675,-5.8732,-5.8761,-5.8843,-5.8864,-5.891,-5.8988,-5.902,-5.9115,-5.913,-5.9235,-5.9235,-5.9215,-5.9215,-5.9271,-5.9265,-5.945,-5.9475,-5.9334,-5.9335,-5.9336,0,-5.8399,-5.8461,-5.8537,-5.8582,-5.8619,-5.869,-5.8737,-5.8766,-5.8814,-5.889,-5.8937,-5.9016,-5.9079,-5.9204,-5.9246,-5.9319,-5.9319,-5.9379,-5.9329,-5.9322,-5.9318,-5.9312,-5.9319,-5.9387,-5.9388,-5.9389,-5.939,0,-5.8523,-5.8539,-5.8606,-5.8681,-5.8737,-5.8797,-5.8855,-5.8892,-5.893,-5.8984,-5.9065,-5.9115,-5.9214,-5.9291,-5.9368,-5.9404,-5.9403,-5.9407,-5.9424,-5.9416,-5.9401,-5.9408,-5.9237,-5.9401,-5.94,-5.9399,-5.9398,-5.9398,-5.8607,-5.8663,-5.8726,-5.8802,-5.885,-5.8905,-5.8962,-5.9,-5.9068,-5.9151,-5.9165,-5.9251,-5.9313,-5.9416,-5.9456,-5.9523,-5.9508,-5.9533,-5.9539,-5.9544,-5.9546,-5.9394,-5.9538,-5.9537,-5.9537,-5.9537,-5.9537,0,-5.873,-5.8772,-5.8842,-5.8924,-5.8984,-5.8982,-5.9048,-5.9098,-5.9174,-5.9232,-5.9296,-5.9389,-5.9466,-5.9515,-5.9593,-5.9637,-5.9639,-5.9656,-5.9652,-5.966,-5.9557,-5.9533,-5.9654,-5.9654,-5.9654,-5.9654,-5.9654,-5.9654,-5.8801,-5.8895,-5.8919,-5.9038,-5.9079,-5.9164,-5.9201,-5.9253,-5.93,-5.9404,-5.9468,-5.9501,-5.9557,-5.9639,-5.9709,-5.9722,-5.9749,-5.9767,-5.9778,-5.968,-5.9667,-5.9655,-5.9634,-5.9773,-5.9773,-5.9876,-5.9877,-5.9877]},{"header":{"parameterUnit":"m.s-1","parameterCategory":1,"la1":30.2991,"la2":30.254,"lo1":-89.0895,"lo2":-89.0444,"dy":0.0017,"dx":0.0017,"nx":28,"ny":28,"refTime":"2026-03-03T09:00:00:Z","depth":0,"parameterNumber":3,"parameterNumberName":"V-component_of_WINDS"},"data":[0,0,0,0,0,0,0,0,0,0,0,0,0,0,0,0,0,0,0,0,0,0,0,0,0,0,0,0,0,0,0,0,0,0,0,0,0,0,0,0,0,0,0,0,0,0,0,0,0,0,0,0,0,0,0,0,0,0,1.7932,1.7934,0,1.8088,1.809,1.8091,1.8203,1.8204,1.8205,1.8206,1.8362,1.8365,1.8368,0,0,0,0,0,0,0,0,0,0,0,0,0,1.773,1.7733,1.7932,1.7934,1.7936,1.8088,1.809,1.8092,1.8203,1.8204,1.8205,1.8206,1.8361,1.8365,1.8369,0,0,0,0,0,0,0,0,0,0,0,0,0,1.7844,1.7734,1.7932,1.801,1.8018,1.8087,1.809,1.8092,1.8203,1.8204,1.8205,1.8207,1.836,1.8364,1.8369,1.8372,0,0,1.8384,1.8386,0,0,0,0,0,0,0,0,1.7838,1.7852,1.7996,1.8004,1.8014,1.8128,1.8076,1.8186,1.8202,1.8132,1.8206,1.8207,1.8283,1.8294,1.832,1.8379,1.8386,1.8385,1.8388,1.839,1.8391,0,0,0,0,0,0,0,1.783,1.7846,1.7994,1.7998,1.8009,1.8037,1.8054,1.8097,1.8198,1.8139,1.8147,1.8164,1.8288,1.8315,1.8324,1.8388,1.8385,1.8389,1.8392,1.8394,1.8462,1.8461,0,0,0,0,0,0,1.781,1.7838,1.7989,1.7998,1.7928,1.8039,1.8059,1.809,1.8198,1.8215,1.8163,1.8169,1.8306,1.8319,1.833,1.8344,1.839,1.8395,1.8397,1.8463,1.8462,1.8461,0,0,0,0,0,0,1.7805,1.7822,1.7982,1.7921,1.7943,1.8041,1.8074,1.8092,1.812,1.8216,1.8234,1.8172,1.8307,1.8323,1.8362,1.8351,1.8397,1.8401,1.8465,1.8463,1.8461,1.8369,0,0,0,0,0,0,1.7799,1.782,1.7822,1.792,1.7946,1.8011,1.8074,1.8094,1.8128,1.8137,1.823,1.8246,1.831,1.8354,1.8367,1.8359,1.8405,1.8466,1.8464,1.8462,1.8373,1.8364,1.8356,0,0,0,0,0,1.7791,1.7788,1.7821,1.7839,1.7951,1.801,1.8025,1.8099,1.8127,1.813,1.8193,1.8243,1.835,1.8357,1.8373,1.8365,1.8467,1.8465,1.8462,1.8377,1.8366,1.8357,0,0,0,0,0,0,1.7684,1.7802,1.7841,1.7869,1.7929,1.8029,1.8035,1.8084,1.8137,1.8143,1.8232,1.8252,1.8282,1.8327,1.8333,1.8376,1.8415,1.8415,1.8345,1.8335,1.8327,1.8316,1.8409,0,0,0,0,0,1.7664,1.7703,1.7804,1.782,1.7848,1.7936,1.7965,1.8017,1.8082,1.8108,1.8173,1.8234,1.8282,1.8311,1.8359,1.838,1.8403,1.8383,1.8374,1.8367,1.8367,1.8384,1.8377,1.8452,1.8452,1.8452,0,0,1.7623,1.7692,1.7711,1.78,1.7853,1.7892,1.7957,1.7994,1.8024,1.8113,1.8155,1.8205,1.8278,1.8309,1.8326,1.8348,1.8351,1.8364,1.8357,1.8361,1.8381,1.8374,1.8367,1.845,1.8451,1.8451,0,0,1.7568,1.7623,1.7644,1.7696,1.7776,1.7835,1.784,1.7934,1.7971,1.8014,1.8083,1.8119,1.8198,1.825,1.8286,1.8253,1.8303,1.8266,1.8222,1.8238,1.8232,1.8227,1.8218,1.8214,1.8265,1.8265,1.8265,0,1.7506,1.7568,1.7648,1.7683,1.7721,1.7806,1.7828,1.7874,1.7965,1.7989,1.8013,1.8117,1.8172,1.8217,1.821,1.8235,1.8245,1.8256,1.8227,1.8223,1.8219,1.8212,1.8208,1.826,1.8261,1.8261,1.8262,0,1.749,1.7532,1.7539,1.7627,1.7666,1.7694,1.7779,1.7808,1.7857,1.7914,1.7958,1.8028,1.8094,1.8108,1.8155,1.8161,1.8173,1.821,1.8252,1.8206,1.8201,1.8198,1.8253,1.8255,1.8256,1.8258,0,0,1.7371,1.7506,1.7507,1.755,1.7645,1.7679,1.7711,1.7778,1.7802,1.7862,1.7893,1.7959,1.7996,1.8037,1.809,1.8104,1.8078,1.8141,1.8144,1.8129,1.8091,1.8064,1.8059,1.8111,1.811,1.811,1.8086,0,1.7333,1.7398,1.7472,1.7511,1.7552,1.7633,1.7662,1.7724,1.7778,1.7821,1.788,1.7927,1.797,1.7996,1.8013,1.8077,1.8071,1.8079,1.8141,1.8142,1.8122,1.8056,1.8027,1.8,1.8084,1.8084,1.8083,0,1.7297,1.7355,1.7399,1.7494,1.7514,1.7538,1.7607,1.7646,1.7718,1.7757,1.7804,1.7862,1.7902,1.7937,1.7994,1.7997,1.8027,1.8062,1.8063,1.8073,1.8111,1.8066,1.7993,1.799,1.808,1.808,1.8081,0,1.7209,1.7299,1.7338,1.7371,1.7481,1.7497,1.7544,1.7618,1.7654,1.7713,1.7738,1.78,1.7834,1.7881,1.7955,1.7974,1.8004,1.8045,1.8039,1.8037,1.8042,1.8041,1.7975,1.8057,1.8057,1.8057,1.8058,0,1.716,1.7184,1.73,1.7324,1.7354,1.7439,1.7466,1.752,1.7585,1.7622,1.7695,1.7727,1.7822,1.7866,1.7923,1.7963,1.7977,1.801,1.8026,1.8005,1.8001,1.8027,1.8031,1.8057,1.8057,1.8057,1.8057,0,1.7067,1.7146,1.7194,1.7296,1.7322,1.734,1.7427,1.7454,1.7513,1.7558,1.7573,1.7666,1.7721,1.78,1.7878,1.7918,1.7949,1.7973,1.7925,1.7935,1.7925,1.7926,1.7875,1.7874,1.7953,1.7952,1.7952,0,1.7032,1.7053,1.7157,1.7188,1.7233,1.728,1.7318,1.7403,1.744,1.7525,1.7542,1.7603,1.7657,1.7742,1.7816,1.7877,1.7904,1.7882,1.7914,1.7893,1.7907,1.7906,1.7909,1.7875,1.7874,1.7873,1.7872,0,1.6961,1.7,1.7052,1.7119,1.7163,1.7219,1.7279,1.7299,1.7397,1.7435,1.7494,1.7535,1.7618,1.7678,1.775,1.7798,1.7852,1.7861,1.7864,1.7843,1.7816,1.7834,1.7907,1.7862,1.7863,1.7864,1.7864,1.7865,1.6898,1.6921,1.7,1.7057,1.7111,1.7166,1.7197,1.7261,1.7312,1.7387,1.7434,1.7491,1.7565,1.7667,1.7713,1.7759,1.778,1.7783,1.7784,1.7784,1.7778,1.7807,1.7772,1.7772,1.7772,1.7773,1.7773,0,1.6833,1.6888,1.694,1.7023,1.7068,1.7115,1.7184,1.7219,1.7269,1.7334,1.7386,1.7455,1.7515,1.7595,1.7661,1.7682,1.7709,1.7697,1.7697,1.7708,1.7753,1.7746,1.7675,1.7675,1.7675,1.7675,1.7675,1.7675,1.6805,1.6849,1.6897,1.6969,1.7024,1.7082,1.7117,1.7169,1.7222,1.7296,1.7347,1.7399,1.747,1.7542,1.76,1.7622,1.7644,1.7625,1.7654,1.7695,1.7704,1.7713,1.7707,1.7628,1.7628,1.7606,1.7606,1.7605]}]]